Torna al catalogo

CZ-6A DEB

AttivoPO
NORAD 61080·DEBRIS·🇨🇳 China

Lanciato Aug 6, 2024 da Taiyuan Satellite Launch Center

Loading…

Prossimi Passaggi (prossime 24 ore)

TLE

AggiornatoSource: Space-Track

Epoca: Sep 14, 2026, 12:53 UTC

1 61080U 24140MW  26257.53712113  .00002906  00000-0  85177-3 0  9999
2 61080  89.2384 284.5380 0017742 316.0263  43.9528 14.43626648107769

Traccia CZ-6A DEB in tempo reale con AllMySat

Download on the App Store